TimeEST,TemperatureF,Dew PointF,Humidity,Sea Level PressureIn,VisibilityMPH,Wind Direction,Wind SpeedMPH,Gust SpeedMPH,PrecipitationIn,Events,Conditions,WindDirDegrees,DateUTC
12:53 AM,32.0,26.1,79,29.93,10.0,East,4.6,-,N/A,,Clear,80,2013-03-06 05:53:00
1:53 AM,34.0,28.9,82,29.89,10.0,East,6.9,-,N/A,,Clear,90,2013-03-06 06:53:00
2:53 AM,36.0,30.0,79,29.86,10.0,East,10.4,-,N/A,,Clear,90,2013-03-06 07:53:00
3:53 AM,37.9,30.9,76,29.84,10.0,East,10.4,19.6,N/A,,Partly Cloudy,100,2013-03-06 08:53:00
4:07 AM,37.4,30.2,75,29.84,10.0,East,16.1,23.0,N/A,,Mostly Cloudy,100,2013-03-06 09:07:00
4:53 AM,39.0,30.0,70,29.81,10.0,East,17.3,29.9,N/A,,Mostly Cloudy,100,2013-03-06 09:53:00
5:53 AM,39.0,30.9,73,29.81,10.0,ESE,18.4,27.6,N/A,,Overcast,110,2013-03-06 10:53:00
6:45 AM,37.4,33.8,87,29.80,8.0,East,21.9,27.6,N/A,,Overcast,90,2013-03-06 11:45:00
6:53 AM,37.0,33.1,86,29.80,6.0,East,19.6,28.8,0.00,Rain,Light Rain,100,2013-03-06 11:53:00
7:15 AM,37.4,33.8,87,29.82,10.0,ESE,19.6,25.3,0.00,,Overcast,110,2013-03-06 12:15:00
7:53 AM,39.0,33.1,79,29.81,8.0,East,18.4,32.2,0.00,Rain,Light Rain,90,2013-03-06 12:53:00
8:53 AM,37.9,33.1,83,29.80,9.0,East,21.9,35.7,0.00,Rain,Light Rain,90,2013-03-06 13:53:00
9:53 AM,39.0,33.1,79,29.79,9.0,East,24.2,38.0,0.01,Rain,Light Rain,100,2013-03-06 14:53:00
10:53 AM,39.0,34.0,82,29.78,8.0,East,26.5,42.6,0.00,Rain,Light Rain,90,2013-03-06 15:53:00
11:53 AM,39.9,34.0,79,29.78,10.0,East,24.2,43.7,0.01,Rain,Light Rain,90,2013-03-06 16:53:00
12:53 PM,41.0,33.1,73,29.76,10.0,East,25.3,40.3,0.00,,Overcast,100,2013-03-06 17:53:00
1:53 PM,39.0,35.1,86,29.76,6.0,ENE,18.4,26.5,0.01,Rain,Light Rain,70,2013-03-06 18:53:00
2:15 PM,39.2,33.8,81,29.76,7.0,ENE,28.8,38.0,0.00,Rain,Light Rain,70,2013-03-06 19:15:00
2:53 PM,39.0,32.0,76,29.77,10.0,ENE,25.3,40.3,0.00,Rain,Light Rain,70,2013-03-06 19:53:00
3:53 PM,39.0,30.9,73,29.80,10.0,ENE,29.9,42.6,0.01,Rain,Light Rain,70,2013-03-06 20:53:00
4:13 PM,37.4,32.0,81,29.81,6.0,ENE,24.2,34.5,0.00,Rain,Light Rain,60,2013-03-06 21:13:00
4:53 PM,37.0,33.1,86,29.81,7.0,NE,20.7,31.1,0.02,Rain,Light Rain,50,2013-03-06 21:53:00
5:11 PM,37.4,32.0,81,29.83,10.0,NE,17.3,25.3,0.00,Rain,Light Rain,40,2013-03-06 22:11:00
5:53 PM,39.9,28.9,65,29.82,10.0,NE,17.3,27.6,0.00,,Overcast,50,2013-03-06 22:53:00
6:53 PM,41.0,28.0,60,29.85,10.0,NE,20.7,28.8,N/A,,Overcast,40,2013-03-06 23:53:00
7:53 PM,39.9,28.0,63,29.86,10.0,NE,26.5,36.8,N/A,,Overcast,40,2013-03-07 00:53:00
8:53 PM,39.0,28.9,67,29.88,10.0,NE,23.0,31.1,0.00,Rain,Light Rain,50,2013-03-07 01:53:00
9:53 PM,36.0,30.0,79,29.90,7.0,NE,16.1,28.8,0.01,Snow,Light Snow,40,2013-03-07 02:53:00
10:53 PM,35.1,30.0,82,29.91,10.0,NNE,16.1,24.2,0.01,,Overcast,20,2013-03-07 03:53:00
11:19 PM,35.6,30.2,81,29.92,5.0,NNE,17.3,24.2,0.00,Snow,Light Snow,30,2013-03-07 04:19:00
11:42 PM,35.6,28.4,75,29.93,8.0,NNE,13.8,25.3,0.00,Snow,Light Snow,30,2013-03-07 04:42:00
11:53 PM,36.0,28.9,76,29.91,10.0,NNE,13.8,21.9,0.00,,Overcast,30,2013-03-07 04:53:00